{"data":{"norad_id":67621,"epoch":"2026-09-19T07:47:20.853024Z","epoch_age_seconds":170837,"freshness":"FRESH","line1":"1 67621U 26020E   26262.32454691  .00009157  00000+0  34180-3 0  9994","line2":"2 67621  43.0001 126.5624 0001715 276.4837  83.5819 15.27587425 35726","mean_motion":15.27587425,"eccentricity":0.0001715,"inclination_deg":43.0001,"raan_deg":126.5624,"arg_perigee_deg":276.4837,"mean_anomaly_deg":83.5819,"bstar":0.0003418,"rev_number":3572,"period_min":94.266290520165,"perigee_km":481.85017340607,"apogee_km":484.20355261108,"semimajor_km":6861.1638630086,"source":"CELESTRAK","updated_at":"2026-09-20T09:00:43.610777Z"}}